Regional Weather Roundup
Issued by NWS

Home | Current Version | Previous Version | Graphics & Text | Print | Product List | Glossary Off
Versions: 1 2 3 4 5 6 7 8 9 10 11 12 13 14 15 16 17 18 19 20 21 22 23 24 25 26 27 28 29 30 31 32 33 34 35 36 37 38 39 40 41 42 43 44 45 46 47 48 49 50

000
ASUS43 KDMX 181601
RWRIA

WEATHER ROUNDUP FOR IOWA
NATIONAL WEATHER SERVICE DES MOINES IA
1100 AM CDT WED OCT 18 2017

NOTE: "FAIR" INDICATES FEW OR NO CLOUDS BELOW 12,000 FEET WITH NO
SIGNIFICANT WEATHER AND/OR OBSTRUCTIONS TO VISIBILITY.

* - THESE STATIONS ARE NOT NWS STATIONS...THUS NOT UNDER NWS
QUALITY CONTROL.  THEY ALSO DO NOT REPORT WEATHER SUCH
AS PRECIPITATION OR FOG.

IAZ001>003-012>014-020>022-031>034-043>046-181700-
   NORTHWEST IOWA

CITY           SKY/WX    TMP DP  RH WIND       PRES   REMARKS
CARROLL *      CLOUDY    68  52  56 SW16G24   29.92R
CHEROKEE *     MOSUNNY   61  49  66 SW13G20   29.86S
DENISON *      SUNNY     63  48  59 S8G16     29.92F
LE MARS *      PTSUNNY   59  46  63 S8        29.87R
ORANGE CITY *  CLOUDY    59  50  72 SW9       29.88R
SHELDON *      MOSUNNY   59  46  63 SW10G17   29.87R
SIOUX CITY     MOSUNNY   61  48  62 SW9G17    29.88R
SPENCER        MOSUNNY   63  46  54 S13       29.86R
STORM LAKE *   CLOUDY    64  46  52 SW13G23   29.87F
$$

IAZ055>058-069>071-079>083-090>094-181700-
   SOUTHWEST IOWA

CITY           SKY/WX    TMP DP  RH WIND       PRES   REMARKS
ATLANTIC *     SUNNY     63  48  59 SW18G24   29.95S
AUDUBON *      SUNNY     63  48  59 SW12G24   29.95R
CLARINDA *     SUNNY     64  48  55 S18       29.99F
COUNCIL BLFS * SUNNY     61  50  67 SW15      29.94S
CRESTON *      SUNNY     63  46  55 SW16G29   29.99F
HARLAN  *      SUNNY     63  48  59 S14G20    29.98R
LAMONI         SUNNY     62  48  60 S14       30.02F
RED OAK *      SUNNY     63  48  59 S17G23    29.96S
$$

IAZ047>049-059>061-072>074-084-181700-
   CENTRAL IOWA

CITY           SKY/WX    TMP DP  RH WIND       PRES   REMARKS
AMES           SUNNY     64  50  60 S9G21     29.96R
ANKENY *       SUNNY     64  48  55 SW12G18   29.98S
BOONE *        SUNNY     64  46  52 SW15      29.94S
CHARITON *     SUNNY     64  46  52 S18       30.00S
DES MOINES     MOSUNNY   65  46  50 SW17      29.97S
GRINNELL*      SUNNY     64  46  52 S15G22    30.01S
KNOXVILLE *    SUNNY     64  46  52 SW13G20   29.99S
MARSHALLTOWN   SUNNY     64  48  56 S14       29.97S
NEWTON *       SUNNY     64  46  52 S16       29.99S
PELLA *        SUNNY     65  46  51 SW13G18   30.02S
PERRY *          N/A     65  46  48 S14G20    29.96R
$$

IAZ004>006-015-016-023>025-035-036-181700-
   NORTH CENTRAL IOWA

CITY           SKY/WX    TMP DP  RH WIND       PRES   REMARKS
ALGONA *       SUNNY     63  48  59 S17G26    29.88S
CLARION *      SUNNY     63  48  59 S18       29.91F
ESTHERVILLE    SUNNY     58  49  72 S14       29.84S
FORT DODGE *   SUNNY     61  48  62 S18       29.91S
MASON CITY     SUNNY     62  47  57 SW16G22   29.92R
FOREST CITY *    N/A     61  46  59 S16       29.89F
WEBSTER CITY * SUNNY     64  46  52 S16G23    29.91S
IOWA FALLS *     N/A     63  48  59 S15       29.96R
$$

IAZ007>011-017>019-026>030-037>042-050>054-066-181700-
   NORTHEAST IOWA

CITY           SKY/WX    TMP DP  RH WIND       PRES   REMARKS
CEDAR RAPIDS   SUNNY     64  47  53 S14G22    30.02S
CHARLES CITY * SUNNY     63  46  55 S15G21    29.93F
CLINTON *      SUNNY     63  47  55 S16       30.07F
DECORAH *      SUNNY     61  46  59 S9G21     29.94S
DUBUQUE        SUNNY     61  47  59 S13G24    30.03S
MONTICELLO *   SUNNY     64  46  52 S13G18    30.03S
OELWEIN *      SUNNY     63  48  59 S18       29.98S
WATERLOO       SUNNY     63  46  54 S16       29.95F
$$

IAZ064-065-067-068-078-181700-
   EAST CENTRAL IOWA

CITY           SKY/WX    TMP DP  RH WIND       PRES   REMARKS
DAVENPORT      SUNNY     63  45  51 S14G24    30.09F
IOWA CITY      SUNNY     64  47  53 S15       30.06F
MUSCATINE *    SUNNY     64  45  48 S16       30.07F
QUAD CITIES    SUNNY     64  45  49 S14G21    30.08F
$$

IAZ062-063-075>077-085>089-095>099-181700-
   SOUTHEAST IOWA

CITY           SKY/WX    TMP DP  RH WIND       PRES   REMARKS
BURLINGTON     SUNNY     63  47  55 S13       30.10F
FAIRFIELD *    SUNNY     63  45  51 S17       30.05F
FORT MADISON * SUNNY     63  46  55 S10       30.10F
KEOKUK *       SUNNY     61  46  59 S12       30.10F
OSKALOOSA *      N/A     63  46  53 SW16      30.03F
$$

ABBREVIATIONS USED IN REMARKS
   TC - TEMPERATURES IN CELSIUS
  WCI - WIND CHILL INDEX
   HX - HEAT INDEX
  VSB - VISIBILITY
$$





USA.gov is the U.S. government's official web portal to all federal, state and local government web resources and services.